Weather History for KBDL - February, 2012

Change the Weather History Date:

Saturday, February 25, 2012

  Actual Average Record
Temperature  
Mean Temperature 37 °F 32 °F  
Max Temperature 44 °F 41 °F 70 °F (1976)
Min Temperature 30 °F 23 °F -2 °F (1914)
Degree Days  
Heating Degree Days 28 33  
Month to date heating degree days 716 891  
Since 1 July heating degree days 3551 4341  
Cooling Degree Days 0 0  
Month to date cooling degree days 0 0  
Year to date cooling degree days 0 0  
Moisture  
Dew Point 23 °F    
Average Humidity 68    
Maximum Humidity 100    
Minimum Humidity 36    
Precipitation  
Precipitation T in 0.11 in 3.04 in (1916)
Month to date precipitation 0.88 2.56  
Year to date precipitation 3.84 5.79  
Snow  
Snow T in 0.30 in 12.50 in (1966)
Month to date snowfall 1.5 10.2  
Since 1 July snowfall 20.6 31.9  
Snow Depth 0.00 in    
Sea Level Pressure  
Sea Level Pressure 29.50 in    
Wind  
Wind Speed 18 mph (West)    
Max Wind Speed 38 mph    
Max Gust Speed 46 mph    
Visibility 8 miles    
Events Snow    
T = Trace of Precipitation, MM = Missing Value Source: NWS Daily Summary

Daily Weather History Graph

Daily Weather History Graph

Search for Another Location

Airport or City:

Trip Planner

Search our weather history database for the weather conditions in past years. The results will help you decide how hot, cold, wet, or windy it might be!

Date:

Astronomy

Feb. 25, 2012 Rise Set
Actual Time 6:32 AM EST 5:35 PM EST
Civil Twilight 6:04 AM EST 6:03 PM EST
Nautical Twilight 5:32 AM EST 6:36 PM EST
Astronomical Twilight 5:00 AM EST 7:08 PM EST
Moon 7:50 AM EST (2/25) 9:39 PM EST (2/25)
Length of Visible Light 11h 59m
Length of Day
11h 02m
Waxing Crescent, 13% of the Moon is Illuminated
Feb 25
Waxing Crescent
Feb 29
First Quarter
Mar 8
Full
Mar 14
Last Quarter
Mar 22
New

Hourly Weather History & Observations

Time (EST) Temp. Windchill Dew Point Humidity Pressure Visibility Wind Dir Wind Speed Gust Speed Precip Events Conditions
12:21 AM 32.0 °F - 30.2 °F 93% 29.29 in 10.0 mi Calm Calm - N/A   Partly Cloudy
12:43 AM 35.6 °F 28.6 °F 32.0 °F 87% 29.29 in 10.0 mi SW 9.2 mph - N/A   Scattered Clouds
12:51 AM 37.4 °F 30.8 °F 33.8 °F 87% 29.30 in 10.0 mi WSW 9.2 mph - N/A   Mostly Cloudy
1:51 AM 37.0 °F 31.0 °F 30.9 °F 79% 29.30 in 10.0 mi SW 8.1 mph - N/A   Mostly Cloudy
2:51 AM 37.0 °F 29.3 °F 28.0 °F 70% 29.29 in 10.0 mi WSW 11.5 mph - N/A   Partly Cloudy
3:51 AM 37.9 °F 31.5 °F 26.1 °F 62% 29.31 in 10.0 mi West 9.2 mph 19.6 mph N/A   Partly Cloudy
4:51 AM 37.0 °F 28.1 °F 24.1 °F 59% 29.34 in 10.0 mi WSW 15.0 mph 26.5 mph N/A   Partly Cloudy
5:51 AM 37.0 °F 31.0 °F 23.0 °F 57% 29.37 in 10.0 mi WSW 8.1 mph - N/A   Partly Cloudy
6:51 AM 36.0 °F 29.6 °F 21.9 °F 57% 29.38 in 10.0 mi WSW 8.1 mph - N/A   Partly Cloudy
7:51 AM 37.0 °F 27.4 °F 21.9 °F 54% 29.40 in 10.0 mi WSW 17.3 mph 26.5 mph N/A   Partly Cloudy
8:51 AM 39.0 °F 29.0 °F 21.0 °F 49% 29.42 in 10.0 mi WSW 20.7 mph 31.1 mph N/A   Scattered Clouds
9:51 AM 41.0 °F 30.0 °F 21.0 °F 45% 29.43 in 10.0 mi West 28.8 mph 34.5 mph N/A   Mostly Cloudy
10:51 AM 41.0 °F 31.1 °F 19.4 °F 42% 29.43 in 10.0 mi West 23.0 mph 40.3 mph N/A   Mostly Cloudy
11:51 AM 42.1 °F 32.3 °F 19.9 °F 41% 29.45 in 10.0 mi West 24.2 mph 38.0 mph N/A   Mostly Cloudy
12:51 PM 42.1 °F 33.1 °F 19.0 °F 40% 29.44 in 10.0 mi West 20.7 mph 33.4 mph N/A   Mostly Cloudy
1:51 PM 42.1 °F 31.1 °F 17.1 °F 37% 29.45 in 10.0 mi West 31.1 mph 42.6 mph N/A   Mostly Cloudy
2:30 PM 35.6 °F 25.2 °F 28.4 °F 75% 29.49 in 1.0 mi NW 18.4 mph 27.6 mph 0.00 in Snow Light Snow
2:41 PM 35.6 °F 24.8 °F 30.2 °F 81% 29.49 in 3.0 mi WNW 19.6 mph 25.3 mph 0.00 in Snow Light Snow
2:51 PM 36.0 °F 26.0 °F 28.9 °F 76% 29.51 in 3.0 mi WNW 17.3 mph 26.5 mph 0.00 in Snow Light Snow
2:54 PM 35.6 °F 25.9 °F 28.4 °F 75% 29.49 in 2.0 mi West 16.1 mph 25.3 mph 0.00 in Snow Light Snow
3:01 PM 35.6 °F 24.8 °F 26.6 °F 70% 29.51 in 1.0 mi West 19.6 mph 32.2 mph 0.00 in Snow Light Snow
3:51 PM 37.4 °F 28.5 °F 24.8 °F 60% 29.52 in 10.0 mi West 15.0 mph 24.2 mph N/A   Mostly Cloudy
4:51 PM 34.0 °F 22.4 °F 27.0 °F 75% 29.58 in 4.0 mi West 20.7 mph 33.4 mph 0.00 in Snow Light Snow
5:51 PM 34.0 °F 19.7 °F 19.9 °F 56% 29.64 in 10.0 mi WNW 33.4 mph 41.4 mph 0.00 in   Mostly Cloudy
6:51 PM 34.0 °F 21.8 °F 17.1 °F 50% 29.68 in 10.0 mi WNW 23.0 mph 32.2 mph N/A   Partly Cloudy
7:51 PM 33.1 °F 23.4 °F 17.1 °F 52% 29.73 in 10.0 mi NW 13.8 mph 27.6 mph N/A   Mostly Cloudy
8:51 PM 32.0 °F 22.1 °F 19.0 °F 59% 29.77 in 10.0 mi WNW 13.8 mph 26.5 mph N/A   Mostly Cloudy
9:51 PM 30.0 °F 16.9 °F 23.0 °F 75% 29.82 in 5.0 mi WNW 21.9 mph 32.2 mph 0.00 in Snow Light Snow
10:51 PM 30.9 °F 21.7 °F 15.1 °F 52% 29.88 in 10.0 mi WNW 11.5 mph 18.4 mph 0.00 in   Scattered Clouds
11:51 PM 30.0 °F 17.5 °F 10.0 °F 43% 29.90 in 10.0 mi WNW 19.6 mph 41.4 mph N/A   Partly Cloudy